Flag Weather past 2 weeks in Kuala Lumpur, Malaysia

Now
77 °F

Passing clouds.


Feels Like: 78 °F
Forecast: 75 / 86 °F
Wind: 2 mph from Southeast

Location: Sultan Abdul Aziz Shah-Subang

Current Time: Nov 29, 2014 at 4:56:05 AM

Latest Report: Nov 29, 2014 at 4:00 AM


Visibility: 5 mi

Pressure: 29.77 "Hg

Humidity: 94%

Dew point: 75 °F

Location of Kuala LumpurLocation

Historic Weather in Kuala Lumpur — Graph

°F

Kuala Lumpur temperature yesterday

Maximum temperature yesterday: 93 °F (at 1:00 PM)
Minimum temperature yesterday: 75 °F (at 7:00 PM)
Average temperature yesterday: 82 °F

Past Weeks' High & Low Weather Summary

 TemperatureHumidityPressure
High93 °F (Nov 28, 1:00 PM)100% (Nov 14, 4:00 AM)29.92 "Hg (Nov 14, 4:00 AM)
Low73 °F (Nov 15, 7:00 AM)52% (Nov 19, 12:00 PM)29.68 "Hg (Nov 28, 4:00 PM)
Average81 °F85%29.81 "Hg
* Reported Nov 14 3:00 AM — Nov 29 3:00 AM, Kuala Lumpur, Weather by CustomWeather, © 2014

Note: Actual official high and low records may vary slightly from our data, if they occured in-between our weather recording intervals... More about our weather records

Advertising

Kuala Lumpur weather history for previous 24 hours

 ConditionsComfort  
Time TempWeatherWind HumidityBarometerVisibility
3:00 AM
Nov 29
77 °FPassing clouds.2 mph94%29.80 "Hg5 mi
2:00 AM77 °FPassing clouds.2 mph94%29.80 "Hg6 mi
1:00 AM77 °FPartly cloudy.2 mph94%29.80 "Hg6 mi
12:00 AM77 °FLight rain. Mostly cloudy.2 mph94%29.83 "Hg5 mi
11:00 PM
Nov 28
77 °FLight rain. Mostly cloudy.5 mph94%29.86 "Hg4 mi
10:00 PM79 °FPartly cloudy.5 mph84%29.86 "Hg5 mi
9:00 PM79 °FThunderstorms. Partly cloudy.9 mph89%29.86 "Hg6 mi
8:00 PM77 °FThunderstorms. Partly cloudy.2 mph94%29.80 "Hg5 mi
7:00 PM75 °FThunderstorms. Mostly cloudy.7 mph94%29.80 "Hg4 mi
6:00 PM81 °FThunderstorms. More clouds than sun.3 mph94%29.74 "Hg3 mi
5:00 PM86 °FThunderstorms. Broken clouds.10 mph79%29.71 "HgN/A
4:00 PM88 °FPartly sunny.12 mph75%29.68 "HgN/A
3:00 PM91 °FBroken clouds.10 mph63%29.71 "HgN/A
2:00 PM93 °FBroken clouds.6 mph53%29.74 "HgN/A
1:00 PM93 °FBroken clouds.7 mph56%29.77 "HgN/A
12:00 PM90 °FBroken clouds.3 mph67%29.80 "HgN/A
11:00 AM88 °FPartly sunny.2 mph70%29.83 "HgN/A
10:00 AM86 °FBroken clouds.2 mph75%29.83 "HgN/A
9:00 AM81 °FPartly sunny.2 mph84%29.83 "Hg6 mi
8:00 AM77 °FPartly sunny.No wind94%29.80 "Hg5 mi
7:00 AM77 °FPassing clouds.1 mph94%29.77 "Hg4 mi
6:00 AM77 °FPassing clouds.2 mph94%29.77 "Hg3 mi
5:00 AM77 °FPassing clouds.2 mph94%29.77 "Hg4 mi
4:00 AM77 °FPassing clouds.1 mph94%29.77 "Hg4 mi
Weather by CustomWeather, © 2014

See weather overviewHow to use our weather pages